Location: Asheville, NC
(35.6000°N, 82.5500°W)
Time: 05:42:09
(UTC-04:00)

AO-7 - Pass Details

Date: 07 January 2018
Orbit: 1439 x 1459 km, 101.7° (Epoch: 20 April)

Event Time Altitude Azimuth Distance (km) Brightness Sun altitude
Rises 06:04:55 0° 2° (N) 4,571 ? -18.9°
Reaches altitude 10° 06:08:38 10° 347° (NNW) 3,588 ? -18.2°
Enters shadow 06:13:34 20° 310° (NW) 2,902 ? -17.2°
